STARLINK-30341, 57714

Orbit data source: Space-Track

STARLINK-30341, 57714 is a payload satellite owned by SpaceX/Seattle (US) in LEO that was launched on Sun, 27 Aug 2023 UTC via an FALCON 9 launch vehicle from the Air Force Eastern Test Range (AFETR). Payload-class satellites include a variety of spacecraft equipped with specific instruments for various scientific and technological missions. These include communications satellites like Starlink; space stations such as the ISS; scientific satellites like the Hubble; Earth observation satellites from companies like Planet Labs, Umbra, and HawkEye 360; GPS; miniature CubeSats for education and research; and military/defense satellites.

Loading next visibility...
Identifier
57714, 2023-129S
Orbit
LEO
Country
Flag of USUS
Related business
Manufacturer
SpaceX/Seattle
Mission
Operational Commercial Communications
Bus & Motor
STARLINK V2M, Unknown motor
Mass
730 kg wet, ~700 kg dry
Launch date (UTC)
2023-08-27 (3 years ago)
Launch vehicle
FALCON 9
Launch site
Air Force Eastern Test Range (AFETR)
Object type
Payload
Rocket body
Debris
Shape & HBR
Box + 2 Pan, 17.7 m
Radar Cross Section
33.884 m², Large (>1 m²)

Expand to show TLE details & history
Last TLE update: 2 days ago

TLE from 2 days ago
0 STARLINK-30341
1 57714U 23129S   26171.28185493  .00000144  00000-0  14748-4 0  9995
2 57714  42.9975 261.8303 0001064 271.4862  88.5868 15.27572898156331
Epoch: 2026-06-20T06:45Z
TLE epoch observation values (Epoch: 2026-06-20T06:45:52.265Z)
Latitude
-0.00002°
Longitude
-108.13621°
Altitude
482.828 km
Speed
7.626 km/s
True Right ascension
17h 27m 19s
True Declination
0° 00' 00"
Sunlit
Object was in full shadow at epoch
Visualization orbit readout
Latitude
Unknown
Longitude
Unknown
Altitude
Unknown
Speed
Unknown
Apparent Right ascension
Unknown
Apparent Declination
Unknown
Sunlit
N/A
Visualization observer readout
Local Sidereal Time
21:23:44
Azimuth
Unknown
Elevation
Unknown
Doppler factor
Unknown
Orbital elements
Apogee altitude
485.746 km
Perigee altitude
484.286 km
Semi-major axis
6,863.153 km
Eccentricity
0.00011
Inclination
42.9975°
RAAN
261.8303°
Arg. of periapsis
271.4862°
True anomaly
88.59899°
Mean anomaly
88.5868°
Eccentric anomaly
88.59289°
Mean motion
3.81731 °/min
Orbital period
94.31 mins
BSTAR
0.000014748
Loading maneuver chart data...
Computing Atmospheric mass density...
Loading historical data...
Loading historical data...
Loading historical data...
Loading historical data...
Loading historical data...
Loading historical data...
Loading historical data...

Documentation

Showing up to 5 results
|